TimeCDT,TemperatureF,Dew PointF,Humidity,Sea Level PressureIn,VisibilityMPH,Wind Direction,Wind SpeedMPH,Gust SpeedMPH,PrecipitationIn,Events,Conditions,WindDirDegrees,DateUTC
12:13 AM,78.8,64.4,61,29.85,10.0,SSE,15.0,21.9,N/A,,Clear,160,2013-06-21 05:13:00
12:32 AM,78.8,64.4,61,29.84,10.0,SSE,19.6,25.3,N/A,,Clear,160,2013-06-21 05:32:00
12:52 AM,78.8,64.4,61,29.84,10.0,SSE,17.3,24.2,N/A,,Clear,160,2013-06-21 05:52:00
1:13 AM,78.8,64.4,61,29.83,10.0,SSE,17.3,26.5,N/A,,Clear,160,2013-06-21 06:13:00
1:32 AM,78.8,66.2,65,29.81,10.0,South,15.0,24.2,N/A,,Clear,170,2013-06-21 06:32:00
1:52 AM,78.8,66.2,65,29.81,10.0,South,17.3,25.3,N/A,,Clear,170,2013-06-21 06:52:00
2:13 AM,77.0,66.2,69,29.82,10.0,South,17.3,23.0,N/A,,Clear,170,2013-06-21 07:13:00
2:32 AM,77.0,66.2,69,29.82,10.0,South,15.0,23.0,N/A,,Clear,170,2013-06-21 07:32:00
2:52 AM,78.8,68.0,69,29.82,10.0,South,13.8,23.0,N/A,,Scattered Clouds,180,2013-06-21 07:52:00
3:13 AM,78.8,68.0,69,29.84,10.0,South,13.8,18.4,N/A,,Mostly Cloudy,190,2013-06-21 08:13:00
3:32 AM,78.8,69.8,74,29.83,10.0,South,13.8,19.6,N/A,,Scattered Clouds,180,2013-06-21 08:32:00
3:52 AM,78.8,69.8,74,29.83,10.0,South,12.7,19.6,N/A,Thunderstorm,Clear,180,2013-06-21 08:52:00
4:13 AM,77.0,69.8,78,29.85,10.0,South,10.4,16.1,N/A,,Scattered Clouds,180,2013-06-21 09:13:00
4:32 AM,73.4,64.4,73,29.89,10.0,NNE,17.3,23.0,N/A,,Mostly Cloudy,30,2013-06-21 09:32:00
4:52 AM,69.8,59.0,68,29.90,10.0,North,20.7,35.7,N/A,Thunderstorm,Overcast,10,2013-06-21 09:52:00
5:13 AM,69.8,57.2,64,29.90,10.0,NNE,11.5,19.6,N/A,Thunderstorm,Overcast,20,2013-06-21 10:13:00
5:32 AM,69.8,57.2,64,29.89,10.0,North,13.8,-,N/A,Thunderstorm,Overcast,10,2013-06-21 10:32:00
5:52 AM,69.8,57.2,64,29.91,10.0,NNW,12.7,21.9,N/A,Rain-Thunderstorm,Light Thunderstorms and Rain,330,2013-06-21 10:52:00
6:13 AM,64.4,60.8,88,29.90,5.0,NNW,10.4,13.8,0.15,Rain-Thunderstorm,Heavy Thunderstorms and Rain,340,2013-06-21 11:13:00
6:32 AM,64.4,60.8,88,29.88,10.0,East,9.2,-,0.30,Rain,Light Rain,80,2013-06-21 11:32:00
6:52 AM,64.4,60.8,88,29.88,10.0,East,3.5,-,0.30,Thunderstorm,Scattered Clouds,100,2013-06-21 11:52:00
7:13 AM,64.4,60.8,88,29.91,10.0,East,6.9,-,N/A,,Mostly Cloudy,90,2013-06-21 12:13:00
7:32 AM,64.4,62.6,94,29.88,10.0,East,11.5,-,N/A,,Overcast,100,2013-06-21 12:32:00
7:52 AM,66.2,62.6,88,29.91,10.0,East,10.4,-,N/A,,Overcast,100,2013-06-21 12:52:00
8:13 AM,66.2,62.6,88,29.93,10.0,SE,15.0,20.7,N/A,,Overcast,130,2013-06-21 13:13:00
8:32 AM,66.2,62.6,88,29.91,10.0,SE,13.8,18.4,N/A,,Overcast,140,2013-06-21 13:32:00
8:52 AM,66.2,62.6,88,29.91,10.0,SSE,15.0,19.6,N/A,,Mostly Cloudy,150,2013-06-21 13:52:00
9:12 AM,68.0,62.6,83,29.92,10.0,SSE,10.4,-,N/A,,Scattered Clouds,160,2013-06-21 14:12:00
9:32 AM,69.8,60.8,73,29.90,10.0,SSE,12.7,17.3,N/A,,Clear,160,2013-06-21 14:32:00
9:53 AM,71.6,60.8,69,29.89,10.0,SSE,12.7,16.1,N/A,,Clear,160,2013-06-21 14:53:00
10:13 AM,73.4,62.6,69,29.87,10.0,SSE,8.1,-,N/A,,Clear,160,2013-06-21 15:13:00
10:32 AM,75.2,64.4,69,29.87,10.0,SSE,11.5,-,N/A,,Clear,160,2013-06-21 15:32:00
10:53 AM,75.2,64.4,69,29.89,10.0,South,6.9,-,N/A,,Clear,180,2013-06-21 15:53:00
11:13 AM,75.2,64.4,69,29.89,10.0,SSE,12.7,18.4,N/A,,Clear,160,2013-06-21 16:13:00
11:32 AM,75.2,66.2,73,29.88,10.0,South,12.7,18.4,N/A,,Clear,170,2013-06-21 16:32:00
11:53 AM,75.2,68.0,78,29.82,10.0,SE,17.3,24.2,N/A,,Clear,140,2013-06-21 16:53:00
12:13 PM,78.8,68.0,69,29.87,10.0,West,4.6,23.0,N/A,,Clear,260,2013-06-21 17:13:00
12:32 PM,80.6,69.8,70,29.88,10.0,SSW,9.2,-,N/A,,Clear,200,2013-06-21 17:32:00
12:53 PM,80.6,69.8,70,29.89,10.0,South,11.5,-,N/A,,Scattered Clouds,190,2013-06-21 17:53:00
1:12 PM,82.4,69.8,66,29.90,10.0,South,10.4,19.6,N/A,,Clear,170,2013-06-21 18:12:00
1:33 PM,82.4,69.8,66,29.90,10.0,SSE,12.7,21.9,N/A,,Clear,160,2013-06-21 18:33:00
1:52 PM,82.4,69.8,66,29.89,10.0,SSE,17.3,21.9,N/A,,Clear,150,2013-06-21 18:52:00
2:12 PM,84.2,69.8,62,29.88,10.0,SE,16.1,20.7,N/A,,Clear,140,2013-06-21 19:12:00
2:33 PM,84.2,69.8,62,29.86,10.0,SE,13.8,18.4,N/A,,Scattered Clouds,130,2013-06-21 19:33:00
2:52 PM,84.2,69.8,62,29.84,10.0,ESE,13.8,19.6,N/A,,Scattered Clouds,110,2013-06-21 19:52:00
3:12 PM,86.0,69.8,58,29.82,10.0,ESE,18.4,21.9,N/A,,Clear,120,2013-06-21 20:12:00
3:33 PM,86.0,69.8,58,29.84,10.0,SE,18.4,26.5,N/A,,Scattered Clouds,140,2013-06-21 20:33:00
3:52 PM,84.2,69.8,62,29.84,10.0,SE,18.4,26.5,N/A,,Scattered Clouds,130,2013-06-21 20:52:00
4:12 PM,82.4,69.8,66,29.86,10.0,SE,13.8,23.0,N/A,,Mostly Cloudy,140,2013-06-21 21:12:00
4:33 PM,84.2,69.8,62,29.85,10.0,SSE,15.0,18.4,N/A,,Mostly Cloudy,150,2013-06-21 21:33:00
4:52 PM,84.2,69.8,62,29.84,10.0,SSE,13.8,-,N/A,,Scattered Clouds,150,2013-06-21 21:52:00
5:13 PM,84.2,69.8,62,29.86,10.0,South,10.4,21.9,N/A,,Scattered Clouds,170,2013-06-21 22:13:00
5:32 PM,82.4,69.8,66,29.90,10.0,SSW,5.8,-,N/A,Thunderstorm,Mostly Cloudy,200,2013-06-21 22:32:00
5:52 PM,82.4,69.8,66,29.88,10.0,Calm,Calm,-,N/A,,Mostly Cloudy,0,2013-06-21 22:52:00
6:13 PM,82.4,71.6,70,29.88,10.0,Calm,Calm,-,N/A,,Clear,0,2013-06-21 23:13:00
6:32 PM,82.4,69.8,66,29.88,10.0,ESE,8.1,-,N/A,,Clear,110,2013-06-21 23:32:00
6:52 PM,82.4,71.6,70,29.89,10.0,Calm,Calm,-,N/A,,Scattered Clouds,0,2013-06-21 23:52:00
7:13 PM,80.6,71.6,74,29.90,10.0,ENE,5.8,-,N/A,,Mostly Cloudy,70,2013-06-22 00:13:00
7:32 PM,73.4,66.2,78,29.94,10.0,NNW,21.9,32.2,N/A,,Overcast,340,2013-06-22 00:32:00
7:52 PM,71.6,64.4,78,29.93,10.0,North,21.9,33.4,N/A,,Mostly Cloudy,10,2013-06-22 00:52:00
8:13 PM,69.8,64.4,83,29.93,10.0,North,13.8,20.7,N/A,Thunderstorm,Overcast,10,2013-06-22 01:13:00
8:32 PM,69.8,64.4,83,29.93,10.0,NNE,13.8,20.7,N/A,,Overcast,30,2013-06-22 01:32:00
8:53 PM,69.8,62.6,78,29.92,10.0,NE,13.8,18.4,N/A,,Scattered Clouds,40,2013-06-22 01:53:00
9:12 PM,69.8,62.6,78,29.91,10.0,NE,12.7,19.6,N/A,Thunderstorm,Mostly Cloudy,50,2013-06-22 02:12:00
9:33 PM,69.8,64.4,83,29.90,10.0,ENE,17.3,23.0,N/A,,Mostly Cloudy,60,2013-06-22 02:33:00
9:53 PM,69.8,64.4,83,29.90,10.0,ENE,20.7,29.9,N/A,Thunderstorm,Mostly Cloudy,60,2013-06-22 02:53:00
10:12 PM,69.8,64.4,83,29.92,10.0,ENE,20.7,29.9,N/A,,Mostly Cloudy,60,2013-06-22 03:12:00
10:33 PM,68.0,64.4,88,29.90,10.0,East,17.3,26.5,N/A,Thunderstorm,Mostly Cloudy,80,2013-06-22 03:33:00
10:53 PM,68.0,62.6,83,29.88,10.0,East,19.6,32.2,N/A,Thunderstorm,Thunderstorm,90,2013-06-22 03:53:00
11:12 PM,69.8,62.6,78,29.90,10.0,NE,18.4,26.5,N/A,Thunderstorm,Thunderstorm,50,2013-06-22 04:12:00
11:33 PM,66.2,62.6,88,29.96,4.0,NNE,23.0,34.5,0.08,Rain-Thunderstorm,Heavy Thunderstorms and Rain,20,2013-06-22 04:33:00
11:53 PM,66.2,62.6,88,29.95,7.0,NNE,21.9,35.7,0.20,Rain-Thunderstorm,Heavy Thunderstorms and Rain,20,2013-06-22 04:53:00